Location: Domont
(49.0278°N, 2.3264°E)
Time: 17:38:09
(UTC+00:00)

UWE-3 - Pass Details

Date: 30 June 2022
Orbit: 583 x 677 km, 97.7° (Epoch: 10 August)

Event Time Altitude Azimuth Distance (km) Brightness Sun altitude
Rises 01:51:32 0° 33° (NNE) 2,885 ? -13.2°
Reaches altitude 10° 01:55:23 10° 69° (ENE) 1,997 ? -12.9°
Maximum altitude 01:56:42 11° 87° (E) 1,924 ? -12.8°
Drops below altitude 10° 01:58:02 10° 105° (ESE) 2,010 ? -12.7°
Sets 02:01:56 0° 140° (SE) 2,937 ? -12.4°
